• In Netherlands
  • List of Countries
  • For 7 days
  • Water Temperature
  • Satellite Maps
  • Weather Map
  • Weather Widgets
  • user-avatar
    Login

    Hourly Weather Sylhet

    Today, 20 February, Monday

    Time Temperature Precipitation Wind Pressure Humidity
    00:00 +20°C° 0 mm 1 mps 757 mmHg 61%
    01:00 +20°C° 0 mm 1 mps 757 mmHg 61%
    02:00 +20°C° 0 mm 1 mps 757 mmHg 62%
    03:00 +19°C° 0 mm 1 mps 757 mmHg 62%
    04:00 +19°C° 0 mm 1 mps 757 mmHg 62%
    05:00 +19°C° 0 mm 1 mps 757 mmHg 63%
    06:00 +20°C° 0 mm 1 mps 756 mmHg 66%
    07:00 +22°C° 0 mm 1 mps 757 mmHg 61%
    08:00 +24°C° 0 mm 1 mps 757 mmHg 57%
    09:00 +26°C° 0 mm 1 mps 757 mmHg 53%
    10:00 +28°C° 0 mm 2 mps 757 mmHg 49%
    11:00 +29°C° 0 mm 2 mps 756 mmHg 45%
    12:00 +31°C° 0 mm 2 mps 756 mmHg 41%
    13:00 +31°C° 0 mm 3 mps 755 mmHg 43%
    14:00 +31°C° 0 mm 3 mps 754 mmHg 44%
    15:00 +31°C° 0 mm 3 mps 754 mmHg 45%
    16:00 +29°C° 0 mm 3 mps 753 mmHg 50%
    17:00 +28°C° 0 mm 2 mps 753 mmHg 54%
    18:00 +26°C° 0 mm 2 mps 753 mmHg 59%
    19:00 +26°C° 0 mm 2 mps 754 mmHg 61%
    20:00 +25°C° 0 mm 3 mps 754 mmHg 64%
    21:00 +25°C° 0 mm 3 mps 755 mmHg 66%
    22:00 +24°C° 0.1 mm 3 mps 755 mmHg 72%
    23:00 +22°C° 0.1 mm 3 mps 755 mmHg 78%

    Tomorrow, 21 February, Tuesday

    Time Temperature Precipitation Wind Pressure Humidity
    00:00 +21°C° 0.1 mm 2 mps 755 mmHg 84%
    01:00 +21°C° 0.1 mm 2 mps 755 mmHg 87%
    02:00 +20°C° 0.1 mm 2 mps 755 mmHg 90%
    03:00 +20°C° 0.1 mm 2 mps 755 mmHg 93%
    04:00 +20°C° 0.1 mm 2 mps 755 mmHg 93%
    05:00 +20°C° 0.1 mm 2 mps 755 mmHg 92%
    06:00 +21°C° 0.1 mm 2 mps 755 mmHg 91%
    07:00 +21°C° 0.1 mm 2 mps 756 mmHg 90%
    08:00 +23°C° 0.1 mm 2 mps 757 mmHg 88%
    09:00 +23°C° 0.1 mm 2 mps 757 mmHg 86%
    10:00 +24°C° 0.1 mm 2 mps 757 mmHg 83%
    11:00 +25°C° 0.1 mm 2 mps 757 mmHg 79%
    12:00 +26°C° 0.1 mm 2 mps 757 mmHg 76%
    13:00 +28°C° 0.1 mm 2 mps 756 mmHg 69%
    14:00 +29°C° 0.1 mm 2 mps 756 mmHg 62%
    15:00 +31°C° 0.1 mm 2 mps 755 mmHg 55%
    16:00 +29°C° 0 mm 2 mps 755 mmHg 61%
    17:00 +28°C° 0 mm 2 mps 755 mmHg 66%
    18:00 +26°C° 0 mm 2 mps 755 mmHg 72%
    19:00 +25°C° 0.3 mm 2 mps 755 mmHg 77%
    20:00 +24°C° 0.3 mm 2 mps 756 mmHg 82%
    21:00 +22°C° 0.3 mm 3 mps 756 mmHg 87%
    22:00 +22°C° 0.1 mm 3 mps 756 mmHg 89%
    23:00 +21°C° 0.1 mm 2 mps 756 mmHg 91%

    Day after tomorrow, 22 February, Wednesday

    Time Temperature Precipitation Wind Pressure Humidity
    00:00 +21°C° 0.1 mm 2 mps 756 mmHg 93%
    01:00 +21°C° 0 mm 2 mps 756 mmHg 93%
    02:00 +20°C° 0 mm 2 mps 756 mmHg 93%
    03:00 +20°C° 0 mm 2 mps 756 mmHg 93%
    04:00 +20°C° 0 mm 2 mps 756 mmHg 92%
    05:00 +20°C° 0 mm 2 mps 756 mmHg 91%
    06:00 +21°C° 0 mm 2 mps 756 mmHg 91%
    07:00 +23°C° 0 mm 2 mps 757 mmHg 87%
    08:00 +23°C° 0 mm 2 mps 758 mmHg 83%
    09:00 +24°C° 0 mm 3 mps 758 mmHg 79%
    10:00 +26°C° 0 mm 2 mps 758 mmHg 73%
    11:00 +27°C° 0 mm 2 mps 758 mmHg 67%
    12:00 +29°C° 0 mm 2 mps 758 mmHg 61%
    13:00 +30°C° 0 mm 2 mps 757 mmHg 58%
    14:00 +31°C° 0 mm 2 mps 756 mmHg 55%
    15:00 +32°C° 0 mm 2 mps 755 mmHg 52%
    16:00 +30°C° 0.1 mm 2 mps 755 mmHg 59%
    17:00 +28°C° 0.1 mm 2 mps 755 mmHg 66%
    18:00 +26°C° 0.1 mm 2 mps 755 mmHg 74%
    19:00 +25°C° 0.6 mm 2 mps 756 mmHg 79%
    20:00 +24°C° 0.6 mm 2 mps 757 mmHg 84%
    21:00 +23°C° 0.6 mm 2 mps 757 mmHg 90%
    22:00 +21°C° 0.6 mm 2 mps 757 mmHg 92%
    23:00 +21°C° 0.6 mm 2 mps 757 mmHg 94%

    23 February, Thursday

    Time Temperature Precipitation Wind Pressure Humidity
    00:00 +21°C° 0.6 mm 2 mps 757 mmHg 96%
    01:00 +21°C° 0.3 mm 2 mps 757 mmHg 95%
    02:00 +21°C° 0.3 mm 2 mps 757 mmHg 94%
    03:00 +23°C° 0.3 mm 2 mps 757 mmHg 94%
    04:00 +23°C° 0.4 mm 2 mps 757 mmHg 94%
    05:00 +21°C° 0.4 mm 2 mps 757 mmHg 94%
    06:00 +21°C° 0.4 mm 2 mps 757 mmHg 94%
    07:00 +23°C° 0.1 mm 2 mps 758 mmHg 91%
    08:00 +24°C° 0.1 mm 3 mps 758 mmHg 87%
    09:00 +25°C° 0.1 mm 3 mps 759 mmHg 84%
    10:00 +26°C° 0.1 mm 2 mps 759 mmHg 78%
    11:00 +28°C° 0.1 mm 2 mps 759 mmHg 73%
    12:00 +29°C° 0.1 mm 1 mps 759 mmHg 67%
    13:00 +29°C° 0.1 mm 2 mps 758 mmHg 65%
    14:00 +30°C° 0.1 mm 2 mps 757 mmHg 62%
    15:00 +31°C° 0.1 mm 3 mps 756 mmHg 60%
    16:00 +29°C° 0.1 mm 2 mps 756 mmHg 68%
    17:00 +27°C° 0.1 mm 2 mps 757 mmHg 77%
    18:00 +25°C° 0.1 mm 1 mps 757 mmHg 85%
    19:00 +24°C° 0.1 mm 1 mps 757 mmHg 87%
    20:00 +23°C° 0.1 mm 1 mps 758 mmHg 89%
    21:00 +23°C° 0.1 mm 1 mps 759 mmHg 91%
    22:00 +22°C° 0.1 mm 1 mps 759 mmHg 92%
    23:00 +22°C° 0.1 mm 1 mps 758 mmHg 92%

    24 February, Friday

    Time Temperature Precipitation Wind Pressure Humidity
    00:00 +21°C° 0.1 mm 1 mps 758 mmHg 93%
    01:00 +21°C° 0.1 mm 1 mps 758 mmHg 93%
    02:00 +21°C° 0.1 mm 1 mps 758 mmHg 94%
    03:00 +21°C° 0.1 mm 1 mps 757 mmHg 95%
    04:00 +22°C° 0 mm 1 mps 758 mmHg 94%
    05:00 +22°C° 0 mm 1 mps 758 mmHg 92%
    06:00 +22°C° 0 mm 1 mps 758 mmHg 91%
    07:00 +23°C° 0.1 mm 1 mps 759 mmHg 88%
    08:00 +24°C° 0.1 mm 2 mps 760 mmHg 84%
    09:00 +25°C° 0.1 mm 2 mps 760 mmHg 81%
    10:00 +27°C° 0 mm 1 mps 760 mmHg 69%
    11:00 +29°C° 0 mm 1 mps 760 mmHg 58%
    12:00 +31°C° 0 mm 1 mps 759 mmHg 47%
    13:00 +31°C° 0 mm 1 mps 758 mmHg 41%
    14:00 +32°C° 0 mm 2 mps 758 mmHg 36%
    15:00 +32°C° 0 mm 2 mps 757 mmHg 31%
    16:00 +29°C° 0 mm 2 mps 757 mmHg 36%
    17:00 +27°C° 0 mm 2 mps 757 mmHg 41%
    18:00 +24°C° 0 mm 1 mps 758 mmHg 46%
    19:00 +23°C° 0 mm 1 mps 758 mmHg 49%
    20:00 +21°C° 0 mm 1 mps 759 mmHg 51%
    21:00 +20°C° 0 mm 1 mps 760 mmHg 53%
    22:00 +20°C° 0 mm 1 mps 759 mmHg 52%
    23:00 +20°C° 0 mm 1 mps 759 mmHg 52%

    25 February, Saturday

    Time Temperature Precipitation Wind Pressure Humidity
    00:00 +19°C° 0 mm 2 mps 759 mmHg 51%
    01:00 +18°C° 0 mm 2 mps 759 mmHg 57%
    02:00 +19°C° 0 mm 1 mps 759 mmHg 62%
    03:00 +18°C° 0 mm 1 mps 759 mmHg 68%
    04:00 +18°C° 0 mm 1 mps 759 mmHg 68%
    05:00 +17°C° 0 mm 2 mps 759 mmHg 69%
    06:00 +17°C° 0 mm 2 mps 759 mmHg 69%
    07:00 +19°C° 0 mm 2 mps 760 mmHg 63%
    08:00 +23°C° 0 mm 2 mps 760 mmHg 58%
    09:00 +25°C° 0 mm 2 mps 761 mmHg 52%
    10:00 +27°C° 0 mm 1 mps 760 mmHg 44%
    11:00 +30°C° 0 mm 1 mps 760 mmHg 36%
    12:00 +32°C° 0 mm 1 mps 759 mmHg 28%
    13:00 +32°C° 0 mm 1 mps 758 mmHg 26%
    14:00 +32°C° 0 mm 2 mps 758 mmHg 24%
    15:00 +32°C° 0 mm 2 mps 757 mmHg 22%
    16:00 +29°C° 0 mm 2 mps 757 mmHg 28%
    17:00 +26°C° 0 mm 2 mps 757 mmHg 34%
    18:00 +23°C° 0 mm 1 mps 757 mmHg 40%
    19:00 +22°C° 0 mm 1 mps 758 mmHg 43%
    20:00 +21°C° 0 mm 1 mps 758 mmHg 45%
    21:00 +20°C° 0 mm 1 mps 759 mmHg 47%
    22:00 +20°C° 0 mm 1 mps 759 mmHg 46%
    23:00 +19°C° 0 mm 2 mps 759 mmHg 45%
    Show more